M I D A S
Marine Information and Data Acquisition System
Tripno 1863 of the Zeeleeuw from 2010-04-22 06:42:15 to 2010-04-22 15:06:58
Back to CruiseResearch ActivitiesStationsMapUnderway DataData graphs

EquipmentUnitsComments
TimeDGPSUTC
LatitudeDGPSDM.mWGS84
LongitudeDGPSDM.mWGS84
SpeedMeteo Stationm/sRelative wind speed
DirectionMeteo StationdegRelative wind direction
TemperatureMeteo Stationdeg CelciusAir temperature
PressureMeteo StationPaAtmospheric pressure
HumidityMeteo Station%Relative humidity
Missing or incorrect values are displayed as -999
Metereological data collected by the RV Zeeleeuw from 2010-04-22 06:23:39 to 2010-04-22 15:15:14
                                                                                    Next 1000 lines
Time Latitude Longitude Speed Direction Temperature Pressure Humidity
2010-04-22 06:23:49 51°13.662 2°55.957 -999 11 5.6 101970 31
2010-04-22 06:23:54 51°13.662 2°55.955 -999 9 5.6 101970 31
2010-04-22 06:23:59 51°13.663 2°55.952 -999 12 5.6 101970 31
2010-04-22 06:24:03 51°13.663 2°55.949 0.1 6 5.6 101970 31
2010-04-22 06:24:08 51°13.664 2°55.945 0.1 11 5.6 101970 31
2010-04-22 06:24:13 51°13.665 2°55.94 0.1 15 5.6 101970 31
2010-04-22 06:24:19 51°13.667 2°55.932 -999 34 5.6 101970 31
2010-04-22 06:24:25 51°13.669 2°55.923 -999 31 5.6 101970 31
2010-04-22 06:24:31 51°13.672 2°55.914 -999 43 5.6 101970 31
2010-04-22 06:24:36 51°13.674 2°55.906 -999 43 5.5 101970 31
2010-04-22 06:24:41 51°13.676 2°55.898 -999 34 5.5 101970 31
2010-04-22 06:24:46 51°13.678 2°55.89 -999 23 5.5 101970 31
2010-04-22 06:24:51 51°13.68 2°55.881 0.7 39 5.5 101970 31
2010-04-22 06:24:56 51°13.682 2°55.872 0.7 40 5.5 101970 31
2010-04-22 06:25:01 51°13.684 2°55.863 0.6 40 5.5 101970 31
2010-04-22 06:25:06 51°13.686 2°55.854 0.7 45 5.5 101970 31
2010-04-22 06:25:11 51°13.688 2°55.845 0.6 43 5.5 101970 31
2010-04-22 06:25:16 51°13.689 2°55.837 0.5 39 5.5 101970 30
2010-04-22 06:25:21 51°13.691 2°55.828 0.5 42 5.5 101970 30
2010-04-22 06:25:26 51°13.693 2°55.819 0.5 41 5.5 101970 31
2010-04-22 06:25:31 51°13.695 2°55.811 0.2 42 5.5 101970 31
2010-04-22 06:25:36 51°13.697 2°55.802 0.1 43 5.5 101970 31
2010-04-22 06:25:41 51°13.699 2°55.794 -999 35 5.5 101970 31
2010-04-22 06:25:46 51°13.702 2°55.786 -999 23 5.5 101970 32
2010-04-22 06:25:51 51°13.704 2°55.778 -999 34 5.5 101970 32
2010-04-22 06:25:56 51°13.706 2°55.77 -999 23 5.6 101970 31
2010-04-22 06:26:01 51°13.709 2°55.763 -999 43 5.6 101970 31
2010-04-22 06:26:06 51°13.711 2°55.756 -999 41 5.5 101970 30
2010-04-22 06:26:11 51°13.714 2°55.75 -999 39 5.5 101970 30
2010-04-22 06:26:16 51°13.716 2°55.743 -999 33 5.5 101970 31
2010-04-22 06:26:21 51°13.717 2°55.737 0.1 27 5.5 101970 31
2010-04-22 06:26:26 51°13.719 2°55.733 1.2 21 5.5 101970 31
2010-04-22 06:26:31 51°13.721 2°55.728 0.8 4 5.5 101970 31
2010-04-22 06:26:36 51°13.722 2°55.725 0.7 3 5.6 101970 31
2010-04-22 06:26:41 51°13.723 2°55.723 0.1 357 5.6 101970 31
2010-04-22 06:26:46 51°13.724 2°55.721 0.1 349 5.5 101970 32
2010-04-22 06:26:51 51°13.725 2°55.719 -999 331 5.5 101970 32
2010-04-22 06:26:55 51°13.726 2°55.717 -999 335 5.5 101970 31
2010-04-22 06:27:01 51°13.729 2°55.713 -999 337 5.5 101970 31
2010-04-22 06:27:05 51°13.731 2°55.71 -999 336 5.5 101970 31
2010-04-22 06:27:11 51°13.735 2°55.704 -999 36 5.5 101970 31
2010-04-22 06:27:16 51°13.74 2°55.7 -999 24 5.5 101970 31
2010-04-22 06:27:21 51°13.745 2°55.695 -999 35 5.5 101970 31
2010-04-22 06:27:26 51°13.75 2°55.69 0.1 18 5.5 101980 31
2010-04-22 06:27:31 51°13.756 2°55.685 0.1 34 5.5 101980 31
2010-04-22 06:27:36 51°13.762 2°55.68 0.1 22 5.5 101970 31
2010-04-22 06:27:41 51°13.769 2°55.674 -999 35 5.5 101970 31
2010-04-22 06:27:46 51°13.776 2°55.669 -999 24 5.6 101970 31
2010-04-22 06:27:51 51°13.783 2°55.663 -999 35 5.6 101970 31
2010-04-22 06:27:56 51°13.79 2°55.658 -999 23 5.6 101970 31
2010-04-22 06:28:01 51°13.797 2°55.653 0.1 33 5.6 101970 31
2010-04-22 06:28:06 51°13.805 2°55.647 0.1 22 5.6 101970 31
2010-04-22 06:28:11 51°13.812 2°55.643 0.5 33 5.6 101970 31
2010-04-22 06:28:16 51°13.819 2°55.638 0.2 22 5.6 101970 31
2010-04-22 06:28:21 51°13.825 2°55.634 0.1 35 5.6 101970 31
2010-04-22 06:28:26 51°13.832 2°55.63 0.1 23 5.6 101970 31
2010-04-22 06:28:31 51°13.839 2°55.626 -999 35 5.6 101970 31
2010-04-22 06:28:36 51°13.845 2°55.623 -999 23 5.6 101970 31
2010-04-22 06:28:41 51°13.852 2°55.621 0.1 34 5.6 101970 31
2010-04-22 06:28:46 51°13.858 2°55.618 0.1 23 5.6 101980 30
2010-04-22 06:28:51 51°13.864 2°55.617 -999 34 5.6 101980 30
2010-04-22 06:28:55 51°13.869 2°55.615 -999 23 5.6 101980 31
2010-04-22 06:29:01 51°13.876 2°55.615 0.1 31 5.6 101980 31
2010-04-22 06:29:06 51°13.882 2°55.614 0.2 23 5.6 101980 31
2010-04-22 06:29:11 51°13.888 2°55.615 0.1 34 5.6 101980 31
2010-04-22 06:29:15 51°13.892 2°55.615 0.1 23 5.6 101980 31
2010-04-22 06:29:21 51°13.899 2°55.616 -999 34 5.6 101980 31
2010-04-22 06:29:26 51°13.903 2°55.618 -999 23 5.6 101970 31
2010-04-22 06:29:31 51°13.908 2°55.62 -999 34 5.6 101970 31
2010-04-22 06:29:36 51°13.913 2°55.622 -999 23 5.7 101970 31
2010-04-22 06:29:41 51°13.917 2°55.625 0.9 33 5.7 101970 31
2010-04-22 06:29:46 51°13.921 2°55.628 1.1 22 5.6 101980 31
2010-04-22 06:29:51 51°13.925 2°55.631 0.2 38 5.6 101980 31
2010-04-22 06:29:55 51°13.928 2°55.634 0.8 20 5.6 101970 31
2010-04-22 06:30:01 51°13.933 2°55.639 1.2 30 5.6 101970 31
2010-04-22 06:30:06 51°13.936 2°55.643 1.2 21 5.6 101970 32
2010-04-22 06:30:11 51°13.94 2°55.647 1.1 32 5.6 101970 32
2010-04-22 06:30:16 51°13.942 2°55.651 1 21 5.7 101970 32
2010-04-22 06:30:21 51°13.945 2°55.654 0.1 33 5.7 101970 32
2010-04-22 06:30:26 51°13.947 2°55.657 0.1 22 5.7 101970 31
2010-04-22 06:30:31 51°13.948 2°55.659 0.7 37 5.7 101970 31
2010-04-22 06:30:36 51°13.949 2°55.66 0.6 268 5.6 101980 30
2010-04-22 06:30:41 51°13.949 2°55.659 0.3 267 5.6 101980 30
2010-04-22 06:30:46 51°13.949 2°55.657 0.3 268 5.7 101970 31
2010-04-22 06:30:51 51°13.949 2°55.654 0.1 262 5.7 101970 31
2010-04-22 06:30:55 51°13.95 2°55.65 0.1 262 5.7 101970 31
2010-04-22 06:31:01 51°13.95 2°55.644 -999 254 5.7 101970 31
2010-04-22 06:31:06 51°13.951 2°55.638 -999 254 5.7 101980 31
2010-04-22 06:31:11 51°13.953 2°55.631 -999 239 5.7 101980 31
2010-04-22 06:31:15 51°13.955 2°55.626 -999 23 5.7 101970 31
2010-04-22 06:31:21 51°13.958 2°55.616 -999 34 5.7 101970 31
2010-04-22 06:31:26 51°13.962 2°55.608 -999 23 5.7 101970 30
2010-04-22 06:31:31 51°13.966 2°55.599 -999 326 5.7 101970 30
2010-04-22 06:31:35 51°13.971 2°55.592 -999 324 5.7 101970 31
2010-04-22 06:31:40 51°13.977 2°55.583 -999 324 5.7 101970 31
2010-04-22 06:31:45 51°13.983 2°55.574 -999 334 5.7 101980 31
2010-04-22 06:31:51 51°13.992 2°55.563 -999 329 5.7 101980 31
2010-04-22 06:31:55 51°13.999 2°55.555 -999 332 5.7 101980 31
2010-04-22 06:32:00 51°14.007 2°55.547 -999 338 5.7 101980 31
2010-04-22 06:32:05 51°14.015 2°55.539 0.1 339 5.7 101980 31
2010-04-22 06:32:11 51°14.025 2°55.529 1.6 338 5.7 101980 31
2010-04-22 06:32:15 51°14.033 2°55.523 1.4 341 5.7 101980 31
2010-04-22 06:32:20 51°14.042 2°55.515 1 343 5.7 101980 31
2010-04-22 06:32:25 51°14.051 2°55.507 1.1 344 5.7 101970 31
2010-04-22 06:32:30 51°14.06 2°55.499 1.4 344 5.7 101970 31
2010-04-22 06:32:35 51°14.069 2°55.491 1.3 342 5.7 101980 32
2010-04-22 06:32:39 51°14.077 2°55.484 1.2 338 5.7 101980 32
2010-04-22 06:32:45 51°14.088 2°55.475 1.7 343 5.7 101980 30
2010-04-22 06:32:50 51°14.097 2°55.467 1.3 341 5.7 101980 30
2010-04-22 06:32:55 51°14.107 2°55.458 1.4 338 5.7 101980 32
2010-04-22 06:33:00 51°14.116 2°55.449 1.3 338 5.7 101980 32
2010-04-22 06:33:06 51°14.127 2°55.439 1.5 338 5.7 101970 31
2010-04-22 06:33:11 51°14.137 2°55.431 1.2 340 5.7 101970 31
2010-04-22 06:33:15 51°14.144 2°55.424 1.2 340 5.7 101970 32
2010-04-22 06:33:21 51°14.156 2°55.414 0.2 339 5.7 101970 32
2010-04-22 06:33:26 51°14.165 2°55.405 0.1 337 5.7 101970 32
2010-04-22 06:33:31 51°14.175 2°55.397 -999 336 5.7 101970 32
2010-04-22 06:33:35 51°14.183 2°55.39 -999 329 5.7 101970 30
2010-04-22 06:33:40 51°14.192 2°55.381 1.5 332 5.7 101970 30
2010-04-22 06:33:46 51°14.204 2°55.37 1.7 332 5.7 101980 31
2010-04-22 06:33:51 51°14.214 2°55.36 1.7 329 5.7 101980 31
2010-04-22 06:33:55 51°14.222 2°55.352 1.7 331 5.7 101970 31
2010-04-22 06:34:00 51°14.232 2°55.341 1.9 335 5.7 101970 31
2010-04-22 06:34:05 51°14.241 2°55.331 2 334 5.7 101980 31
2010-04-22 06:34:10 51°14.251 2°55.32 1.3 335 5.7 101980 31
2010-04-22 06:34:15 51°14.261 2°55.31 1.5 333 5.8 101970 31
2010-04-22 06:34:19 51°14.269 2°55.302 1.7 338 5.8 101970 31
2010-04-22 06:34:24 51°14.279 2°55.291 1.2 334 5.8 101980 30
2010-04-22 06:34:29 51°14.289 2°55.281 1.7 338 5.8 101980 30
2010-04-22 06:34:34 51°14.299 2°55.269 1.7 339 5.8 101980 30
2010-04-22 06:34:39 51°14.309 2°55.257 1.6 334 5.8 101980 30
2010-04-22 06:34:43 51°14.318 2°55.247 1.8 339 5.8 101970 32
2010-04-22 06:34:49 51°14.331 2°55.23 2.5 337 5.8 101970 32
2010-04-22 06:34:54 51°14.342 2°55.217 2.9 341 5.8 101980 32
2010-04-22 06:34:59 51°14.353 2°55.204 2.6 347 5.8 101980 32
2010-04-22 06:35:03 51°14.362 2°55.194 2.9 345 5.8 101970 30
2010-04-22 06:35:08 51°14.373 2°55.181 2.6 348 5.8 101970 30
2010-04-22 06:35:13 51°14.384 2°55.168 2.5 345 5.8 101970 32
2010-04-22 06:35:18 51°14.396 2°55.156 2.8 346 5.8 101970 32
2010-04-22 06:35:23 51°14.407 2°55.143 2.9 346 5.8 101980 32
2010-04-22 06:35:27 51°14.417 2°55.134 2.3 345 5.8 101980 32
2010-04-22 06:35:32 51°14.429 2°55.121 3 344 5.8 101970 30
2010-04-22 06:35:37 51°14.441 2°55.108 2.6 344 5.8 101970 30
2010-04-22 06:35:42 51°14.453 2°55.095 2.5 345 5.8 101980 32
2010-04-22 06:35:47 51°14.466 2°55.082 2 343 5.8 101980 32
2010-04-22 06:35:52 51°14.478 2°55.069 2.1 345 5.7 101970 31
2010-04-22 06:35:57 51°14.491 2°55.056 2.7 348 5.7 101970 31
2010-04-22 06:36:02 51°14.504 2°55.043 2.8 350 5.7 101970 31
2010-04-22 06:36:07 51°14.516 2°55.03 2.9 349 5.7 101970 31
2010-04-22 06:36:12 51°14.529 2°55.018 3 349 5.7 101980 29
2010-04-22 06:36:17 51°14.542 2°55.007 2.6 347 5.7 101980 29
2010-04-22 06:36:22 51°14.556 2°54.996 2.9 350 5.7 101970 29
2010-04-22 06:36:27 51°14.568 2°54.983 3.2 348 5.7 101970 29
2010-04-22 06:36:32 51°14.581 2°54.969 3.3 347 5.7 101970 29
2010-04-22 06:36:37 51°14.592 2°54.954 2.5 348 5.7 101970 29
2010-04-22 06:36:42 51°14.604 2°54.939 2.5 350 5.7 101970 30
2010-04-22 06:36:47 51°14.616 2°54.924 2.2 348 5.7 101970 30
2010-04-22 06:36:52 51°14.628 2°54.91 2 346 5.7 101970 30
2010-04-22 06:36:57 51°14.639 2°54.895 2.1 343 5.7 101970 30
2010-04-22 06:37:02 51°14.651 2°54.881 2 346 5.8 101970 30
2010-04-22 06:37:07 51°14.662 2°54.865 2.1 345 5.8 101970 30
2010-04-22 06:37:12 51°14.673 2°54.85 1.6 349 5.7 101970 31
2010-04-22 06:37:17 51°14.685 2°54.833 2.3 342 5.7 101970 31
2010-04-22 06:37:22 51°14.696 2°54.816 2.4 340 5.7 101980 31
2010-04-22 06:37:27 51°14.709 2°54.798 2.3 346 5.7 101980 31
2010-04-22 06:37:32 51°14.721 2°54.779 2.9 344 5.7 101970 30
2010-04-22 06:37:37 51°14.734 2°54.76 2.8 342 5.7 101970 30
2010-04-22 06:37:42 51°14.748 2°54.741 3.5 342 5.7 101980 31
2010-04-22 06:37:47 51°14.762 2°54.723 2.9 345 5.7 101980 31
2010-04-22 06:37:52 51°14.776 2°54.704 3.9 344 5.8 101980 30
2010-04-22 06:37:57 51°14.79 2°54.685 3.6 341 5.8 101980 30
2010-04-22 06:38:02 51°14.805 2°54.666 2.7 342 5.8 101970 31
2010-04-22 06:38:07 51°14.819 2°54.647 3.2 343 5.8 101970 31
2010-04-22 06:38:12 51°14.834 2°54.628 4.5 340 5.8 101980 30
2010-04-22 06:38:17 51°14.848 2°54.609 3.1 338 5.8 101980 30
2010-04-22 06:38:22 51°14.863 2°54.589 3.4 340 5.8 101970 31
2010-04-22 06:38:27 51°14.878 2°54.57 3.8 340 5.8 101970 31
2010-04-22 06:38:32 51°14.892 2°54.551 3.6 341 5.8 101980 29
2010-04-22 06:38:37 51°14.908 2°54.533 3.7 342 5.8 101980 29
2010-04-22 06:38:42 51°14.923 2°54.515 3.8 342 5.7 101970 31
2010-04-22 06:38:47 51°14.939 2°54.498 4.6 344 5.7 101970 31
2010-04-22 06:38:52 51°14.955 2°54.482 3.6 341 5.7 101970 29
2010-04-22 06:38:57 51°14.972 2°54.466 4.6 344 5.7 101970 29
2010-04-22 06:39:02 51°14.988 2°54.45 4.1 345 5.7 101970 31
2010-04-22 06:39:07 51°15.004 2°54.434 3.7 344 5.7 101970 31
2010-04-22 06:39:12 51°15.021 2°54.418 3.4 345 5.7 101980 31
2010-04-22 06:39:17 51°15.037 2°54.402 3.5 341 5.7 101980 31
2010-04-22 06:39:22 51°15.053 2°54.385 3.4 340 5.8 101980 30
2010-04-22 06:39:27 51°15.069 2°54.368 3.6 343 5.8 101980 30
2010-04-22 06:39:32 51°15.085 2°54.351 3.4 339 5.8 101970 30
2010-04-22 06:39:37 51°15.101 2°54.334 2.6 346 5.8 101970 30
2010-04-22 06:39:42 51°15.117 2°54.317 4.4 343 5.8 101970 30
2010-04-22 06:39:47 51°15.133 2°54.3 3.8 344 5.8 101970 30
2010-04-22 06:39:52 51°15.149 2°54.283 4.4 343 5.8 101980 30
2010-04-22 06:39:57 51°15.165 2°54.266 3.4 343 5.8 101980 30
2010-04-22 06:40:02 51°15.18 2°54.249 3.5 344 5.8 101990 31
2010-04-22 06:40:07 51°15.197 2°54.232 3.7 344 5.8 101990 31
2010-04-22 06:40:12 51°15.212 2°54.215 3.6 342 5.8 101980 32
2010-04-22 06:40:17 51°15.228 2°54.197 4 338 5.8 101980 32
2010-04-22 06:40:22 51°15.244 2°54.18 3.4 345 5.7 101970 31
2010-04-22 06:40:27 51°15.26 2°54.163 3.1 346 5.7 101970 31
2010-04-22 06:40:32 51°15.276 2°54.146 4.9 344 5.7 101980 30
2010-04-22 06:40:37 51°15.292 2°54.129 3.9 342 5.7 101980 30
2010-04-22 06:40:43 51°15.312 2°54.109 3.6 346 5.7 101970 30
2010-04-22 06:40:47 51°15.325 2°54.095 3.2 343 5.7 101970 30
2010-04-22 06:40:52 51°15.341 2°54.079 3.8 344 5.7 101980 32
2010-04-22 06:40:57 51°15.357 2°54.062 3.2 344 5.7 101980 32
2010-04-22 06:41:02 51°15.374 2°54.046 3.6 343 5.7 101960 32
2010-04-22 06:41:07 51°15.39 2°54.029 3.9 344 5.7 101960 32
2010-04-22 06:41:12 51°15.406 2°54.013 3.1 344 5.8 101970 32
2010-04-22 06:41:17 51°15.423 2°53.996 3.9 343 5.8 101970 32
2010-04-22 06:41:22 51°15.439 2°53.979 3.8 344 5.7 101970 30
2010-04-22 06:41:27 51°15.455 2°53.962 3.4 343 5.7 101970 30
2010-04-22 06:41:32 51°15.471 2°53.945 3.7 342 5.7 101970 30
2010-04-22 06:41:37 51°15.487 2°53.928 4.4 340 5.7 101970 30
2010-04-22 06:41:42 51°15.503 2°53.911 2.5 344 5.8 101970 30
2010-04-22 06:41:47 51°15.519 2°53.894 3.5 343 5.8 101970 30
2010-04-22 06:41:52 51°15.535 2°53.877 3.5 344 5.7 101980 31
2010-04-22 06:41:57 51°15.551 2°53.86 2.9 342 5.7 101980 31
2010-04-22 06:42:02 51°15.567 2°53.844 3.1 339 5.7 101970 28
2010-04-22 06:42:07 51°15.583 2°53.828 3.6 336 5.7 101970 28
2010-04-22 06:42:12 51°15.599 2°53.811 3.2 341 5.7 101980 30
2010-04-22 06:42:17 51°15.615 2°53.795 3.2 338 5.7 101980 30
2010-04-22 06:42:22 51°15.631 2°53.778 2.9 341 5.7 101970 31
2010-04-22 06:42:27 51°15.647 2°53.761 3.3 342 5.7 101970 31
2010-04-22 06:42:32 51°15.663 2°53.745 3 341 5.7 101970 30
2010-04-22 06:42:37 51°15.678 2°53.727 2.6 342 5.7 101970 30
2010-04-22 06:42:42 51°15.694 2°53.709 4.2 344 5.7 101970 29
2010-04-22 06:42:47 51°15.709 2°53.691 3.9 344 5.7 101970 29
2010-04-22 06:42:52 51°15.725 2°53.673 4.4 344 5.7 101980 29
2010-04-22 06:42:57 51°15.74 2°53.655 3.6 341 5.7 101980 29
2010-04-22 06:43:02 51°15.755 2°53.637 4.7 344 5.8 101980 32
2010-04-22 06:43:07 51°15.77 2°53.619 4 344 5.8 101980 32
2010-04-22 06:43:12 51°15.785 2°53.601 3.9 344 5.8 101970 30
2010-04-22 06:43:17 51°15.801 2°53.583 3.9 342 5.8 101970 30
2010-04-22 06:43:23 51°15.819 2°53.561 3.6 343 5.8 101970 30
2010-04-22 06:43:27 51°15.831 2°53.546 3.8 343 5.8 101970 30
2010-04-22 06:43:32 51°15.846 2°53.527 2.7 339 5.8 101960 31
2010-04-22 06:43:37 51°15.861 2°53.509 3.1 339 5.8 101960 31
2010-04-22 06:43:42 51°15.877 2°53.491 2.2 338 5.8 101960 32
2010-04-22 06:43:47 51°15.892 2°53.472 2.7 342 5.8 101960 32
2010-04-22 06:43:52 51°15.907 2°53.454 3.5 342 5.8 101970 32
2010-04-22 06:43:57 51°15.923 2°53.436 3.3 343 5.8 101970 32
2010-04-22 06:44:02 51°15.938 2°53.417 3.7 344 5.8 101980 30
2010-04-22 06:44:07 51°15.953 2°53.399 3.6 340 5.8 101980 30
2010-04-22 06:44:12 51°15.969 2°53.381 3.5 347 5.8 101980 32
2010-04-22 06:44:17 51°15.984 2°53.364 3.5 348 5.8 101980 32
2010-04-22 06:44:22 51°16.001 2°53.348 3.3 345 5.8 101970 30
2010-04-22 06:44:27 51°16.018 2°53.333 2.9 347 5.8 101970 30
2010-04-22 06:44:32 51°16.035 2°53.32 3.5 347 5.8 101960 30
2010-04-22 06:44:37 51°16.052 2°53.306 3.8 347 5.8 101960 30
2010-04-22 06:44:42 51°16.07 2°53.293 3.2 346 5.8 101970 30
2010-04-22 06:44:47 51°16.087 2°53.279 3.6 340 5.8 101970 30
2010-04-22 06:44:52 51°16.105 2°53.267 4.8 342 5.8 101990 29
2010-04-22 06:44:57 51°16.123 2°53.255 3.8 343 5.8 101990 29
2010-04-22 06:45:02 51°16.141 2°53.242 4.1 341 5.8 101970 31
2010-04-22 06:45:07 51°16.16 2°53.231 3.9 342 5.8 101970 31
2010-04-22 06:45:12 51°16.178 2°53.22 3.7 343 5.8 101970 31
2010-04-22 06:45:17 51°16.197 2°53.209 3.8 343 5.8 101970 31
2010-04-22 06:45:22 51°16.215 2°53.198 5.1 344 5.8 101970 31
2010-04-22 06:45:27 51°16.233 2°53.188 2.6 348 5.8 101970 31
2010-04-22 06:45:32 51°16.252 2°53.177 5.3 347 5.8 101980 31
2010-04-22 06:45:37 51°16.27 2°53.166 4.9 348 5.8 101980 31
2010-04-22 06:45:42 51°16.289 2°53.156 4.1 347 5.8 101970 31
2010-04-22 06:45:47 51°16.307 2°53.145 4.2 346 5.8 101970 31
2010-04-22 06:45:52 51°16.326 2°53.134 3.7 347 5.8 101960 30
2010-04-22 06:45:57 51°16.344 2°53.124 4.6 344 5.8 101960 30
2010-04-22 06:46:02 51°16.363 2°53.113 5.4 344 5.8 101960 30
2010-04-22 06:46:07 51°16.382 2°53.102 4.2 343 5.8 101960 30
2010-04-22 06:46:12 51°16.4 2°53.091 4.8 345 5.8 101970 31
2010-04-22 06:46:17 51°16.419 2°53.081 4 349 5.8 101970 31
2010-04-22 06:46:22 51°16.437 2°53.07 4.5 344 5.8 101970 30
2010-04-22 06:46:27 51°16.456 2°53.059 4.3 349 5.8 101970 30
2010-04-22 06:46:32 51°16.474 2°53.048 3.9 346 5.9 101970 30
2010-04-22 06:46:37 51°16.493 2°53.038 4.8 343 5.9 101970 30
2010-04-22 06:46:42 51°16.512 2°53.028 3.5 344 5.9 101970 31
2010-04-22 06:46:47 51°16.53 2°53.017 4.6 342 5.9 101970 31
2010-04-22 06:46:52 51°16.549 2°53.007 4.7 344 5.9 101960 31
2010-04-22 06:46:57 51°16.567 2°52.996 4.9 343 5.9 101960 31
2010-04-22 06:47:03 51°16.589 2°52.984 4.2 342 5.9 101980 31
2010-04-22 06:47:07 51°16.604 2°52.976 4.5 345 5.9 101980 31
2010-04-22 06:47:12 51°16.623 2°52.965 4.5 346 5.9 101980 30
2010-04-22 06:47:17 51°16.641 2°52.954 5.4 347 5.9 101980 30
2010-04-22 06:47:22 51°16.659 2°52.942 4.8 345 5.9 101960 31
2010-04-22 06:47:27 51°16.677 2°52.93 4.8 345 5.9 101960 31
2010-04-22 06:47:32 51°16.695 2°52.919 5 344 5.9 101970 30
2010-04-22 06:47:37 51°16.712 2°52.907 5.3 342 5.9 101970 30
2010-04-22 06:47:43 51°16.734 2°52.893 4.1 342 5.9 101970 32
2010-04-22 06:47:47 51°16.748 2°52.883 4.9 347 5.9 101970 32
2010-04-22 06:47:52 51°16.766 2°52.871 4.2 346 5.9 101960 30
2010-04-22 06:47:57 51°16.784 2°52.859 4 347 5.9 101960 30
2010-04-22 06:48:02 51°16.802 2°52.847 5.1 344 6 101960 30
2010-04-22 06:48:07 51°16.819 2°52.835 4.8 344 6 101960 30
2010-04-22 06:48:11 51°16.834 2°52.826 5.9 344 6 101970 32
2010-04-22 06:48:17 51°16.855 2°52.811 4.2 343 6 101970 32
2010-04-22 06:48:22 51°16.873 2°52.799 4.4 346 6 101980 32
2010-04-22 06:48:27 51°16.891 2°52.787 3.7 347 6 101980 32
2010-04-22 06:48:32 51°16.909 2°52.775 4 343 6 101980 32
2010-04-22 06:48:37 51°16.926 2°52.763 5.1 345 6 101980 32
2010-04-22 06:48:42 51°16.944 2°52.75 4.4 344 5.9 101970 30
2010-04-22 06:48:47 51°16.962 2°52.738 5 345 5.9 101970 30
2010-04-22 06:48:52 51°16.98 2°52.725 4.6 344 5.9 101980 30
2010-04-22 06:48:57 51°16.998 2°52.713 4 342 5.9 101980 30
2010-04-22 06:49:02 51°17.015 2°52.699 4.2 344 5.9 101980 30
2010-04-22 06:49:07 51°17.033 2°52.687 4.5 344 5.9 101980 30
2010-04-22 06:49:12 51°17.051 2°52.674 4 340 5.9 101980 31
2010-04-22 06:49:17 51°17.069 2°52.66 3.9 342 5.9 101980 31
2010-04-22 06:49:22 51°17.087 2°52.647 3.9 343 5.9 101970 30
2010-04-22 06:49:27 51°17.104 2°52.634 4.2 344 5.9 101970 30
2010-04-22 06:49:32 51°17.122 2°52.622 3.8 346 5.9 101980 32
2010-04-22 06:49:37 51°17.14 2°52.609 4.6 347 5.9 101980 32
2010-04-22 06:49:42 51°17.158 2°52.599 5.6 286 5.9 101980 31
2010-04-22 06:49:47 51°17.178 2°52.591 5.2 346 5.9 101980 31
2010-04-22 06:49:52 51°17.197 2°52.584 5.8 282 5.9 101970 30
2010-04-22 06:49:57 51°17.216 2°52.579 4.7 342 5.9 101970 30
2010-04-22 06:50:03 51°17.24 2°52.573 5.1 343 6 101980 30
2010-04-22 06:50:07 51°17.256 2°52.571 4.8 344 6 101980 30
2010-04-22 06:50:12 51°17.276 2°52.568 5.4 280 5.9 101980 31
2010-04-22 06:50:17 51°17.296 2°52.566 4.7 345 5.9 101980 31
2010-04-22 06:50:22 51°17.316 2°52.565 4.9 277 6 101970 32
2010-04-22 06:50:27 51°17.336 2°52.563 5.7 339 6 101970 32
2010-04-22 06:50:32 51°17.356 2°52.563 5.5 283 6 101970 32
2010-04-22 06:50:37 51°17.376 2°52.561 6.4 343 6 101970 32
2010-04-22 06:50:42 51°17.396 2°52.561 4.5 280 6 101970 31
2010-04-22 06:50:47 51°17.417 2°52.561 4.2 343 6 101970 31
2010-04-22 06:50:52 51°17.436 2°52.561 4.3 283 6 101970 31
2010-04-22 06:50:57 51°17.457 2°52.56 4.8 342 6 101970 31
2010-04-22 06:51:02 51°17.476 2°52.56 5.5 343 6 101970 30
2010-04-22 06:51:07 51°17.496 2°52.56 5.3 342 6 101970 30
2010-04-22 06:51:12 51°17.517 2°52.559 4.4 347 6 101970 31
2010-04-22 06:51:17 51°17.537 2°52.559 5.3 347 6 101970 31
2010-04-22 06:51:22 51°17.557 2°52.558 4.6 349 6 101980 30
2010-04-22 06:51:27 51°17.577 2°52.558 5 347 6 101980 30
2010-04-22 06:51:32 51°17.597 2°52.557 6 281 6 101970 31
2010-04-22 06:51:37 51°17.617 2°52.556 6.4 340 6 101970 31
2010-04-22 06:51:42 51°17.637 2°52.555 5.5 279 6 101980 30
2010-04-22 06:51:47 51°17.657 2°52.554 6.3 338 6 101980 30
2010-04-22 06:51:52 51°17.677 2°52.554 4.3 284 6 101980 31
2010-04-22 06:51:57 51°17.697 2°52.553 4.4 335 6 101980 31
2010-04-22 06:52:02 51°17.717 2°52.552 5.2 336 6 101970 30
2010-04-22 06:52:07 51°17.737 2°52.551 5 336 6 101970 30
2010-04-22 06:52:12 51°17.757 2°52.549 4.9 282 6 101970 31
2010-04-22 06:52:17 51°17.777 2°52.549 5.6 339 6 101970 31
2010-04-22 06:52:22 51°17.797 2°52.547 4.8 278 6 101980 30
2010-04-22 06:52:27 51°17.817 2°52.546 4.9 341 6 101980 30
2010-04-22 06:52:32 51°17.837 2°52.545 4.4 279 6 101970 30
2010-04-22 06:52:37 51°17.857 2°52.544 4.7 339 6 101970 30
2010-04-22 06:52:42 51°17.877 2°52.542 4.4 286 6 101980 29
2010-04-22 06:52:47 51°17.897 2°52.541 5.2 343 6 101980 29
2010-04-22 06:52:52 51°17.917 2°52.539 4.2 278 6 101970 31
2010-04-22 06:52:57 51°17.937 2°52.538 4.3 343 6 101970 31
2010-04-22 06:53:02 51°17.957 2°52.536 4.2 344 6 101970 30
2010-04-22 06:53:07 51°17.977 2°52.535 4 338 6 101970 30
2010-04-22 06:53:12 51°17.997 2°52.533 5.2 279 6 101980 30
2010-04-22 06:53:17 51°18.017 2°52.532 5.5 340 6 101980 30
2010-04-22 06:53:22 51°18.037 2°52.53 4.6 282 6 101990 30
2010-04-22 06:53:27 51°18.057 2°52.529 5 339 6 101990 30
2010-04-22 06:53:32 51°18.077 2°52.528 5.4 285 6 101990 32
2010-04-22 06:53:37 51°18.098 2°52.528 5.4 339 6 101990 32
2010-04-22 06:53:42 51°18.117 2°52.526 5.7 286 6 101980 30
2010-04-22 06:53:47 51°18.138 2°52.525 4.8 339 6 101980 30
2010-04-22 06:53:52 51°18.158 2°52.522 5.2 336 6 101980 30
2010-04-22 06:53:57 51°18.178 2°52.521 5 337 6 101980 30
2010-04-22 06:54:02 51°18.198 2°52.52 6.2 337 6 101980 30
2010-04-22 06:54:07 51°18.218 2°52.518 6.8 337 6 101980 30
2010-04-22 06:54:12 51°18.238 2°52.516 6.5 280 6 101970 31
2010-04-22 06:54:17 51°18.258 2°52.514 5.8 335 6 101970 31
2010-04-22 06:54:22 51°18.278 2°52.512 6.9 281 6 101980 30
2010-04-22 06:54:27 51°18.298 2°52.509 6.5 340 6 101980 30
2010-04-22 06:54:32 51°18.318 2°52.507 6.3 280 6.1 101970 30
2010-04-22 06:54:37 51°18.338 2°52.505 6 336 6.1 101970 30
2010-04-22 06:54:42 51°18.357 2°52.502 5.8 281 6.1 101960 30
2010-04-22 06:54:47 51°18.377 2°52.5 5.8 339 6.1 101960 30
2010-04-22 06:54:52 51°18.397 2°52.498 5.4 286 6.1 101970 31
2010-04-22 06:54:57 51°18.417 2°52.496 5.1 342 6.1 101970 31
2010-04-22 06:55:02 51°18.437 2°52.494 5.7 341 6.1 101980 30
2010-04-22 06:55:07 51°18.456 2°52.492 4.5 338 6.1 101980 30
2010-04-22 06:55:12 51°18.476 2°52.491 4.7 285 6.1 101970 31
2010-04-22 06:55:17 51°18.496 2°52.489 4.8 339 6.1 101970 31
2010-04-22 06:55:22 51°18.516 2°52.486 5.8 282 6.1 101970 29
2010-04-22 06:55:27 51°18.535 2°52.485 6 338 6.1 101970 29
2010-04-22 06:55:32 51°18.555 2°52.482 4.9 286 6.1 101980 30
2010-04-22 06:55:37 51°18.575 2°52.48 5.1 339 6.1 101980 30
2010-04-22 06:55:42 51°18.595 2°52.479 5.7 285 6.1 101980 30
2010-04-22 06:55:47 51°18.615 2°52.477 6 341 6.1 101980 30
2010-04-22 06:55:52 51°18.635 2°52.475 6.4 340 6.1 101970 32
2010-04-22 06:55:57 51°18.654 2°52.473 4.8 342 6.1 101970 32
2010-04-22 06:56:02 51°18.674 2°52.471 5.4 346 6.1 101970 31
2010-04-22 06:56:07 51°18.694 2°52.468 5.9 346 6.1 101970 31
2010-04-22 06:56:12 51°18.714 2°52.467 5.9 285 6.1 101970 30
2010-04-22 06:56:17 51°18.734 2°52.464 6.5 338 6.1 101970 30
2010-04-22 06:56:22 51°18.753 2°52.463 5.4 279 6.1 101970 32
2010-04-22 06:56:27 51°18.774 2°52.461 6.4 334 6.1 101970 32
2010-04-22 06:56:32 51°18.793 2°52.459 6.9 285 6.1 101960 31
2010-04-22 06:56:37 51°18.813 2°52.457 9.3 338 6.1 101960 31
2010-04-22 06:56:42 51°18.833 2°52.455 7.9 281 6.1 101970 32
2010-04-22 06:56:47 51°18.853 2°52.453 7.8 339 6.1 101970 32
2010-04-22 06:56:52 51°18.873 2°52.451 7.3 284 6.1 101970 31
2010-04-22 06:56:57 51°18.893 2°52.449 7 340 6.1 101970 31
2010-04-22 06:57:02 51°18.913 2°52.447 8.3 341 6.1 101960 32
2010-04-22 06:57:07 51°18.933 2°52.445 8.2 340 6.1 101960 32
2010-04-22 06:57:12 51°18.952 2°52.443 7.8 284 6.2 101960 32
2010-04-22 06:57:17 51°18.972 2°52.441 7.8 343 6.2 101960 32
2010-04-22 06:57:22 51°18.992 2°52.439 7 282 6.2 101970 30
2010-04-22 06:57:27 51°19.011 2°52.437 7.9 338 6.2 101970 30
2010-04-22 06:57:32 51°19.031 2°52.435 7.2 281 6.2 101960 31
2010-04-22 06:57:37 51°19.051 2°52.433 7.5 340 6.2 101960 31
2010-04-22 06:57:42 51°19.07 2°52.431 9.8 280 6.2 101960 32
2010-04-22 06:57:47 51°19.089 2°52.428 7.5 338 6.2 101960 32
2010-04-22 06:57:52 51°19.109 2°52.426 8 278 6.2 101970 30
2010-04-22 06:57:57 51°19.128 2°52.425 8 347 6.2 101970 30
2010-04-22 06:58:02 51°19.148 2°52.422 8 346 6.2 101970 30
2010-04-22 06:58:07 51°19.168 2°52.421 7.8 346 6.2 101970 30
2010-04-22 06:58:12 51°19.188 2°52.419 8.6 279 6.2 101960 31
2010-04-22 06:58:17 51°19.208 2°52.416 8.3 346 6.2 101960 31
2010-04-22 06:58:22 51°19.227 2°52.414 8.8 283 6.3 101960 32
2010-04-22 06:58:27 51°19.247 2°52.412 8 346 6.3 101960 32
2010-04-22 06:58:32 51°19.267 2°52.41 9.5 346 6.3 101950 31
2010-04-22 06:58:37 51°19.287 2°52.407 9.1 346 6.3 101950 31
2010-04-22 06:58:42 51°19.307 2°52.405 8 279 6.3 101960 32
2010-04-22 06:58:47 51°19.327 2°52.403 8.4 347 6.3 101960 32
2010-04-22 06:58:52 51°19.347 2°52.401 7.7 282 6.3 101950 32
2010-04-22 06:58:57 51°19.367 2°52.399 8 345 6.3 101950 32
2010-04-22 06:59:02 51°19.386 2°52.398 7.1 347 6.2 101950 30
2010-04-22 06:59:07 51°19.407 2°52.397 7.8 346 6.2 101950 30
2010-04-22 06:59:12 51°19.427 2°52.397 7.8 279 6.2 101960 31
2010-04-22 06:59:17 51°19.447 2°52.396 8.4 343 6.2 101960 31
2010-04-22 06:59:22 51°19.467 2°52.397 6.8 284 6.2 101960 30
2010-04-22 06:59:27 51°19.487 2°52.397 7.3 345 6.2 101960 30
2010-04-22 06:59:32 51°19.507 2°52.398 8.2 285 6.2 101960 29
2010-04-22 06:59:37 51°19.527 2°52.398 7.8 342 6.2 101960 29
2010-04-22 06:59:42 51°19.547 2°52.399 9.6 281 6.2 101960 30
2010-04-22 06:59:47 51°19.567 2°52.4 8.5 340 6.2 101960 30
2010-04-22 06:59:52 51°19.587 2°52.401 8.7 286 6.2 101980 31
2010-04-22 06:59:57 51°19.607 2°52.402 8.4 341 6.2 101980 31
2010-04-22 07:00:02 51°19.627 2°52.403 7.8 341 6.2 101960 31
2010-04-22 07:00:07 51°19.647 2°52.404 8.7 342 6.2 101960 31
2010-04-22 07:00:12 51°19.668 2°52.406 8.6 286 6.2 101960 30
2010-04-22 07:00:17 51°19.688 2°52.406 8.6 342 6.2 101960 30
2010-04-22 07:00:22 51°19.708 2°52.408 8.1 287 6.2 101960 30
2010-04-22 07:00:27 51°19.729 2°52.409 7.8 341 6.2 101960 30
2010-04-22 07:00:32 51°19.749 2°52.41 8.7 285 6.2 101960 31
2010-04-22 07:00:37 51°19.769 2°52.411 7.8 343 6.2 101960 31
2010-04-22 07:00:42 51°19.789 2°52.412 8.5 282 6.3 101970 29
2010-04-22 07:00:47 51°19.809 2°52.413 10.9 341 6.3 101970 29
2010-04-22 07:00:52 51°19.83 2°52.414 7.9 284 6.3 101960 30
2010-04-22 07:00:57 51°19.85 2°52.414 7.8 341 6.3 101960 30
2010-04-22 07:01:02 51°19.87 2°52.416 8.4 342 6.3 101960 31
2010-04-22 07:01:07 51°19.89 2°52.416 7.7 343 6.3 101960 31
2010-04-22 07:01:12 51°19.911 2°52.417 8.1 281 6.3 101950 30
2010-04-22 07:01:17 51°19.931 2°52.418 8.5 343 6.3 101950 30
2010-04-22 07:01:22 51°19.951 2°52.42 8.2 286 6.3 101960 30
2010-04-22 07:01:27 51°19.971 2°52.421 8.1 342 6.3 101960 30
2010-04-22 07:01:32 51°19.992 2°52.422 7.7 282 6.2 101970 30
2010-04-22 07:01:37 51°20.012 2°52.422 7.7 343 6.2 101970 30
2010-04-22 07:01:42 51°20.032 2°52.424 7.3 281 6.3 101960 30
2010-04-22 07:01:47 51°20.053 2°52.425 7.4 346 6.3 101960 30
2010-04-22 07:01:52 51°20.073 2°52.426 8.1 287 6.3 101970 31
2010-04-22 07:01:57 51°20.093 2°52.427 8.1 343 6.3 101970 31
2010-04-22 07:02:02 51°20.113 2°52.428 8.2 343 6.3 101980 31
2010-04-22 07:02:07 51°20.134 2°52.429 7.8 344 6.3 101980 31
2010-04-22 07:02:12 51°20.154 2°52.43 9 281 6.3 101970 31
2010-04-22 07:02:17 51°20.174 2°52.431 8.8 344 6.3 101970 31
2010-04-22 07:02:22 51°20.194 2°52.432 7.6 279 6.3 101950 32
2010-04-22 07:02:27 51°20.214 2°52.433 7.7 344 6.3 101950 32
2010-04-22 07:02:32 51°20.234 2°52.434 7.4 346 6.3 101970 30
2010-04-22 07:02:37 51°20.254 2°52.435 9 345 6.3 101970 30
2010-04-22 07:02:42 51°20.274 2°52.436 7.6 283 6.3 101960 31
2010-04-22 07:02:47 51°20.294 2°52.437 7.8 345 6.3 101960 31
2010-04-22 07:02:52 51°20.314 2°52.438 8.4 281 6.2 101970 31
2010-04-22 07:02:57 51°20.334 2°52.438 8.1 345 6.2 101970 31
2010-04-22 07:03:02 51°20.355 2°52.439 7.3 345 6.2 101980 30
2010-04-22 07:03:07 51°20.375 2°52.439 8.3 346 6.2 101980 30
2010-04-22 07:03:12 51°20.395 2°52.44 9.7 279 6.3 101970 30
2010-04-22 07:03:17 51°20.415 2°52.44 9 344 6.3 101970 30
2010-04-22 07:03:22 51°20.435 2°52.44 8.2 280 6.3 101970 29
2010-04-22 07:03:27 51°20.455 2°52.441 10 339 6.3 101970 29
2010-04-22 07:03:32 51°20.475 2°52.441 7.2 283 6.2 101970 31
2010-04-22 07:03:37 51°20.495 2°52.441 7 342 6.2 101970 31
2010-04-22 07:03:42 51°20.514 2°52.442 8.1 280 6.2 101960 29
2010-04-22 07:03:47 51°20.534 2°52.442 7.5 341 6.2 101960 29
2010-04-22 07:03:52 51°20.553 2°52.443 6.9 279 6.2 101960 31
2010-04-22 07:03:57 51°20.573 2°52.443 7 341 6.2 101960 31
2010-04-22 07:04:02 51°20.593 2°52.446 7.4 341 6.2 101980 30
2010-04-22 07:04:07 51°20.613 2°52.448 8.7 340 6.2 101980 30
2010-04-22 07:04:12 51°20.632 2°52.45 8.6 281 6.2 101960 31
2010-04-22 07:04:17 51°20.652 2°52.453 7.9 340 6.2 101960 31
2010-04-22 07:04:22 51°20.672 2°52.456 8 283 6.2 101970 30
2010-04-22 07:04:27 51°20.692 2°52.46 7 339 6.2 101970 30
2010-04-22 07:04:32 51°20.712 2°52.464 9.5 283 6.2 101980 30
2010-04-22 07:04:37 51°20.731 2°52.47 9.1 336 6.2 101980 30
2010-04-22 07:04:42 51°20.751 2°52.474 8.2 285 6.2 101970 31
2010-04-22 07:04:47 51°20.77 2°52.48 7.8 335 6.2 101970 31
2010-04-22 07:04:52 51°20.79 2°52.485 7.6 287 6.2 101970 30
2010-04-22 07:04:57 51°20.809 2°52.491 7.1 337 6.2 101970 30
2010-04-22 07:05:02 51°20.829 2°52.497 7.8 337 6.2 101970 32
2010-04-22 07:05:07 51°20.848 2°52.504 7 337 6.2 101970 32
2010-04-22 07:05:12 51°20.868 2°52.51 6.9 338 6.2 101960 31
2010-04-22 07:05:17 51°20.888 2°52.517 7.9 337 6.2 101960 31
2010-04-22 07:05:22 51°20.907 2°52.523 7.7 280 6.2 101980 30
2010-04-22 07:05:27 51°20.927 2°52.53 8.7 332 6.2 101980 30
2010-04-22 07:05:32 51°20.947 2°52.536 9.1 284 6.2 101980 29
2010-04-22 07:05:37 51°20.966 2°52.543 8.5 337 6.2 101980 29
2010-04-22 07:05:42 51°20.986 2°52.549 8.8 286 6.2 101980 30
2010-04-22 07:05:47 51°21.006 2°52.556 8.7 337 6.2 101980 30
2010-04-22 07:05:52 51°21.025 2°52.563 9.1 281 6.2 101980 31
2010-04-22 07:05:57 51°21.044 2°52.569 8.9 340 6.2 101980 31
2010-04-22 07:06:02 51°21.064 2°52.576 8.8 341 6.3 101970 30
2010-04-22 07:06:07 51°21.084 2°52.582 7.9 342 6.3 101970 30
2010-04-22 07:06:12 51°21.103 2°52.588 7.8 279 6.3 101970 32
2010-04-22 07:06:17 51°21.122 2°52.594 7.9 345 6.3 101970 32
2010-04-22 07:06:22 51°21.142 2°52.6 7.4 346 6.3 101950 31
2010-04-22 07:06:27 51°21.162 2°52.607 8.1 346 6.3 101950 31
2010-04-22 07:06:32 51°21.181 2°52.613 7.4 281 6.3 101960 32
2010-04-22 07:06:37 51°21.201 2°52.62 7.9 344 6.3 101960 32
2010-04-22 07:06:42 51°21.221 2°52.626 9.4 284 6.3 101970 30
2010-04-22 07:06:47 51°21.24 2°52.632 7.8 343 6.3 101970 30
2010-04-22 07:06:52 51°21.26 2°52.638 7.5 344 6.3 101960 31
2010-04-22 07:06:57 51°21.28 2°52.645 7.5 345 6.3 101960 31
2010-04-22 07:07:02 51°21.3 2°52.651 7.7 344 6.3 101960 32
2010-04-22 07:07:07 51°21.319 2°52.658 8 341 6.3 101960 32
2010-04-22 07:07:12 51°21.339 2°52.664 8 284 6.3 101970 31
2010-04-22 07:07:17 51°21.359 2°52.671 8.8 340 6.3 101970 31
2010-04-22 07:07:22 51°21.379 2°52.677 8.6 282 6.2 101970 31
2010-04-22 07:07:27 51°21.399 2°52.684 8.3 339 6.2 101970 31
2010-04-22 07:07:32 51°21.419 2°52.69 8.7 282 6.3 101970 30
2010-04-22 07:07:37 51°21.438 2°52.696 8.3 339 6.3 101970 30
2010-04-22 07:07:42 51°21.458 2°52.703 8.2 283 6.3 101960 31
2010-04-22 07:07:47 51°21.478 2°52.709 7.7 340 6.3 101960 31
2010-04-22 07:07:52 51°21.498 2°52.716 9 287 6.3 101970 32
2010-04-22 07:07:57 51°21.518 2°52.722 9 339 6.3 101970 32
2010-04-22 07:08:02 51°21.538 2°52.728 9.7 338 6.3 101970 31
2010-04-22 07:08:07 51°21.558 2°52.734 9.4 336 6.3 101970 31
2010-04-22 07:08:12 51°21.577 2°52.74 10.2 286 6.3 101970 32
2010-04-22 07:08:17 51°21.597 2°52.747 9 335 6.3 101970 32
2010-04-22 07:08:22 51°21.616 2°52.753 8.5 279 6.3 101970 30
2010-04-22 07:08:27 51°21.635 2°52.76 7.8 335 6.3 101970 30
2010-04-22 07:08:32 51°21.654 2°52.766 8.2 284 6.3 101970 31
2010-04-22 07:08:37 51°21.674 2°52.772 8 338 6.3 101970 31
2010-04-22 07:08:42 51°21.693 2°52.778 8 285 6.3 101940 29
2010-04-22 07:08:47 51°21.713 2°52.782 7.9 340 6.3 101940 29
2010-04-22 07:08:52 51°21.733 2°52.787 8.7 281 6.3 101970 31
2010-04-22 07:08:57 51°21.752 2°52.792 7.9 339 6.3 101970 31
2010-04-22 07:09:02 51°21.772 2°52.796 8.2 340 6.3 101960 31
2010-04-22 07:09:07 51°21.792 2°52.799 8.3 341 6.3 101960 31
2010-04-22 07:09:12 51°21.812 2°52.803 8.8 280 6.3 101970 30
2010-04-22 07:09:17 51°21.832 2°52.807 8.6 340 6.3 101970 30
2010-04-22 07:09:22 51°21.852 2°52.81 7.9 282 6.3 101980 32
2010-04-22 07:09:27 51°21.872 2°52.813 7.4 340 6.3 101980 32
2010-04-22 07:09:32 51°21.891 2°52.815 7.7 279 6.3 101960 32
2010-04-22 07:09:37 51°21.911 2°52.816 8.4 340 6.3 101960 32
2010-04-22 07:09:42 51°21.931 2°52.817 7.9 285 6.3 101960 32
2010-04-22 07:09:47 51°21.951 2°52.819 7.6 338 6.3 101960 32
2010-04-22 07:09:52 51°21.972 2°52.82 9.5 286 6.3 101970 30
2010-04-22 07:09:57 51°21.991 2°52.819 8.6 338 6.3 101970 30
2010-04-22 07:10:02 51°22.011 2°52.819 8.7 339 6.3 101960 31
2010-04-22 07:10:07 51°22.031 2°52.817 8.8 337 6.3 101960 31
2010-04-22 07:10:12 51°22.051 2°52.815 7.6 287 6.3 101970 31
2010-04-22 07:10:17 51°22.071 2°52.813 7.7 340 6.3 101970 31
2010-04-22 07:10:22 51°22.091 2°52.811 9.1 285 6.3 101980 30
2010-04-22 07:10:27 51°22.111 2°52.808 7.9 341 6.3 101980 30
2010-04-22 07:10:32 51°22.131 2°52.805 7.5 283 6.3 101970 30
2010-04-22 07:10:37 51°22.15 2°52.802 7.8 342 6.3 101970 30
2010-04-22 07:10:42 51°22.17 2°52.798 8 280 6.3 101980 32
2010-04-22 07:10:47 51°22.189 2°52.794 7.9 343 6.3 101980 32
2010-04-22 07:10:52 51°22.209 2°52.79 8 281 6.3 101980 30
2010-04-22 07:10:57 51°22.229 2°52.786 7.5 339 6.3 101980 30
2010-04-22 07:11:02 51°22.249 2°52.783 7.6 340 6.2 101980 31
2010-04-22 07:11:07 51°22.269 2°52.779 9.5 340 6.2 101980 31
2010-04-22 07:11:12 51°22.288 2°52.775 7.6 340 6.2 101970 30
2010-04-22 07:11:17 51°22.308 2°52.771 9.8 344 6.2 101970 30
2010-04-22 07:11:22 51°22.328 2°52.768 9.3 284 6.2 101970 30
2010-04-22 07:11:27 51°22.348 2°52.765 8.3 345 6.2 101970 30
2010-04-22 07:11:32 51°22.367 2°52.762 10.1 286 6.2 101980 31
2010-04-22 07:11:37 51°22.387 2°52.758 10.9 344 6.2 101980 31
2010-04-22 07:11:42 51°22.407 2°52.755 9 345 6.2 101970 30
2010-04-22 07:11:47 51°22.427 2°52.752 7.7 345 6.2 101970 30
2010-04-22 07:11:52 51°22.446 2°52.749 10.3 281 6.2 101960 31
2010-04-22 07:11:57 51°22.466 2°52.746 9.6 345 6.2 101960 31
2010-04-22 07:12:02 51°22.485 2°52.743 9.1 348 6.2 101950 30
2010-04-22 07:12:07 51°22.505 2°52.74 9.6 345 6.2 101950 30
2010-04-22 07:12:12 51°22.525 2°52.736 11.6 282 6.2 101970 31
2010-04-22 07:12:17 51°22.544 2°52.733 10.7 346 6.2 101970 31
2010-04-22 07:12:22 51°22.564 2°52.73 9.5 282 6.2 101950 30
2010-04-22 07:12:27 51°22.584 2°52.727 10.4 344 6.2 101950 30
2010-04-22 07:12:32 51°22.604 2°52.724 9.7 284 6.2 101960 31
2010-04-22 07:12:37 51°22.624 2°52.72 9.2 344 6.2 101960 31
2010-04-22 07:12:42 51°22.643 2°52.716 7.8 344 6.2 101960 31
2010-04-22 07:12:47 51°22.663 2°52.713 7.4 344 6.2 101960 31
2010-04-22 07:12:52 51°22.683 2°52.709 8.3 283 6.2 101960 29
2010-04-22 07:12:57 51°22.703 2°52.706 7.4 342 6.2 101960 29
2010-04-22 07:13:02 51°22.724 2°52.704 9.9 342 6.2 101970 30
2010-04-22 07:13:07 51°22.744 2°52.701 7.8 343 6.2 101970 30
2010-04-22 07:13:12 51°22.764 2°52.698 7.7 280 6.2 101980 29
2010-04-22 07:13:17 51°22.785 2°52.696 7.5 344 6.2 101980 29
2010-04-22 07:13:22 51°22.805 2°52.693 8 282 6.2 101970 30
2010-04-22 07:13:27 51°22.825 2°52.69 8.4 345 6.2 101970 30
2010-04-22 07:13:32 51°22.844 2°52.687 7.8 281 6.2 101960 29
2010-04-22 07:13:37 51°22.864 2°52.683 7.1 343 6.2 101960 29
2010-04-22 07:13:42 51°22.884 2°52.68 7.8 287 6.2 101980 31
2010-04-22 07:13:47 51°22.904 2°52.677 8 343 6.2 101980 31
2010-04-22 07:13:52 51°22.924 2°52.675 8.8 278 6.2 101990 29
2010-04-22 07:13:57 51°22.945 2°52.671 9.2 345 6.2 101990 29
2010-04-22 07:14:02 51°22.965 2°52.668 8 345 6.2 101970 30
2010-04-22 07:14:07 51°22.984 2°52.665 7.1 345 6.2 101970 30
2010-04-22 07:14:12 51°23.004 2°52.662 8.2 344 6.2 101970 30
2010-04-22 07:14:17 51°23.024 2°52.66 7.3 344 6.2 101970 30
2010-04-22 07:14:22 51°23.044 2°52.657 7.5 345 6.2 101960 31
2010-04-22 07:14:27 51°23.064 2°52.655 7.1 345 6.2 101960 31
2010-04-22 07:14:32 51°23.085 2°52.652 8.2 285 6.2 101970 31
2010-04-22 07:14:37 51°23.105 2°52.65 7.7 344 6.2 101970 31
2010-04-22 07:14:42 51°23.125 2°52.648 7.3 283 6.2 101980 30
2010-04-22 07:14:47 51°23.145 2°52.644 6.8 344 6.2 101980 30
2010-04-22 07:14:52 51°23.165 2°52.641 7.9 284 6.2 101970 31
2010-04-22 07:14:57 51°23.186 2°52.639 7.7 345 6.2 101970 31
2010-04-22 07:15:02 51°23.206 2°52.636 8.1 343 6.2 101970 32
2010-04-22 07:15:07 51°23.226 2°52.632 8.3 344 6.2 101970 32
2010-04-22 07:15:12 51°23.247 2°52.63 7.9 279 6.2 101970 30
2010-04-22 07:15:17 51°23.266 2°52.627 8.3 344 6.2 101970 30
2010-04-22 07:15:22 51°23.286 2°52.624 7.7 281 6.2 101980 31
2010-04-22 07:15:27 51°23.306 2°52.622 7.7 347 6.2 101980 31
2010-04-22 07:15:32 51°23.326 2°52.617 7.9 349 6.2 101980 31
2010-04-22 07:15:37 51°23.346 2°52.616 8.1 348 6.2 101980 31
2010-04-22 07:15:42 51°23.366 2°52.611 7.6 280 6.2 101970 30
2010-04-22 07:15:47 51°23.387 2°52.61 7.3 348 6.2 101970 30
2010-04-22 07:15:52 51°23.407 2°52.606 8.1 345 6.2 101970 30
2010-04-22 07:15:57 51°23.428 2°52.604 7.9 348 6.2 101970 30
2010-04-22 07:16:02 51°23.448 2°52.601 7.2 347 6.2 101970 30
2010-04-22 07:16:07 51°23.469 2°52.599 7.5 345 6.2 101970 30
2010-04-22 07:16:12 51°23.489 2°52.596 8.2 349 6.2 101970 30
2010-04-22 07:16:17 51°23.51 2°52.594 7.5 348 6.2 101970 30
2010-04-22 07:16:22 51°23.53 2°52.591 6.9 346 6.2 101970 30
2010-04-22 07:16:27 51°23.551 2°52.588 8 346 6.2 101970 30
2010-04-22 07:16:32 51°23.571 2°52.586 8 281 6.2 101980 31
2010-04-22 07:16:37 51°23.591 2°52.582 7.4 348 6.2 101980 31
2010-04-22 07:16:42 51°23.611 2°52.58 7.7 346 6.2 101970 30
2010-04-22 07:16:47 51°23.632 2°52.576 8.7 346 6.2 101970 30
2010-04-22 07:16:52 51°23.653 2°52.575 7.4 279 6.2 101980 30
2010-04-22 07:16:57 51°23.673 2°52.572 8.3 347 6.2 101980 30
2010-04-22 07:17:02 51°23.693 2°52.57 7.5 347 6.2 101970 32
2010-04-22 07:17:07 51°23.714 2°52.566 8.2 348 6.2 101970 32
2010-04-22 07:17:12 51°23.735 2°52.564 8 280 6.2 101960 30
2010-04-22 07:17:17 51°23.755 2°52.561 8 347 6.2 101960 30
2010-04-22 07:17:22 51°23.775 2°52.559 7.8 280 6.2 101970 31
2010-04-22 07:17:27 51°23.794 2°52.556 8.4 346 6.2 101970 31
2010-04-22 07:17:32 51°23.814 2°52.553 7.9 349 6.2 101970 30
2010-04-22 07:17:37 51°23.834 2°52.551 7.5 349 6.2 101970 30
2010-04-22 07:17:42 51°23.854 2°52.548 8.5 348 6.2 101980 30
2010-04-22 07:17:47 51°23.874 2°52.546 7.3 349 6.2 101980 30
2010-04-22 07:17:52 51°23.895 2°52.543 7.9 282 6.2 101960 31
2010-04-22 07:17:57 51°23.915 2°52.541 7.7 348 6.2 101960 31
2010-04-22 07:18:02 51°23.935 2°52.538 7.9 346 6.2 101970 31
2010-04-22 07:18:07 51°23.956 2°52.536 7.5 347 6.2 101970 31
2010-04-22 07:18:12 51°23.977 2°52.533 8.5 279 6.2 101970 30
2010-04-22 07:18:17 51°23.997 2°52.531 9.7 347 6.2 101970 30
2010-04-22 07:18:22 51°24.017 2°52.528 7.8 281 6.2 101970 30
2010-04-22 07:18:27 51°24.037 2°52.526 6.6 347 6.2 101970 30
2010-04-22 07:18:32 51°24.057 2°52.523 8.4 284 6.2 101980 31
2010-04-22 07:18:37 51°24.078 2°52.52 10 347 6.2 101980 31
2010-04-22 07:18:42 51°24.098 2°52.518 7.7 347 6.2 101970 31
2010-04-22 07:18:47 51°24.118 2°52.515 7.5 345 6.2 101970 31
2010-04-22 07:18:52 51°24.138 2°52.513 7.3 346 6.2 101990 32
2010-04-22 07:18:57 51°24.158 2°52.511 7.6 347 6.2 101990 32
2010-04-22 07:19:02 51°24.178 2°52.508 7.3 347 6.2 101960 31
2010-04-22 07:19:07 51°24.198 2°52.506 8.1 348 6.2 101960 31
2010-04-22 07:19:12 51°24.219 2°52.503 7.3 349 6.2 101980 31
2010-04-22 07:19:17 51°24.239 2°52.501 7.2 346 6.2 101980 31
2010-04-22 07:19:22 51°24.26 2°52.498 8.1 348 6.2 101970 30
2010-04-22 07:19:27 51°24.28 2°52.495 7.7 348 6.2 101970 30
2010-04-22 07:19:32 51°24.3 2°52.492 8.2 348 6.2 101960 29
2010-04-22 07:19:37 51°24.32 2°52.489 7.2 349 6.2 101960 29
2010-04-22 07:19:42 51°24.341 2°52.487 7.4 279 6.2 101970 30
2010-04-22 07:19:47 51°24.361 2°52.484 6.4 348 6.2 101970 30
2010-04-22 07:19:52 51°24.381 2°52.482 8 347 6.2 101970 30
2010-04-22 07:19:57 51°24.401 2°52.479 7.2 347 6.2 101970 30
2010-04-22 07:20:02 51°24.421 2°52.476 7.6 349 6.2 101980 30
2010-04-22 07:20:07 51°24.442 2°52.473 7.6 347 6.2 101980 30
2010-04-22 07:20:12 51°24.462 2°52.47 7.9 282 6.2 101990 30
2010-04-22 07:20:17 51°24.482 2°52.468 7.4 347 6.2 101990 30
2010-04-22 07:20:22 51°24.502 2°52.465 8 285 6.2 101960 30
2010-04-22 07:20:27 51°24.522 2°52.462 6.9 346 6.2 101960 30
2010-04-22 07:20:32 51°24.543 2°52.46 7.1 280 6.2 101970 31
2010-04-22 07:20:37 51°24.563 2°52.458 7 346 6.2 101970 31
2010-04-22 07:20:42 51°24.583 2°52.456 8 346 6.2 101980 30
2010-04-22 07:20:47 51°24.603 2°52.453 7.4 346 6.2 101980 30
2010-04-22 07:20:52 51°24.623 2°52.45 8.4 281 6.2 101980 30
2010-04-22 07:20:57 51°24.643 2°52.448 7.6 347 6.2 101980 30
2010-04-22 07:21:02 51°24.663 2°52.445 6.9 346 6.2 101970 30
2010-04-22 07:21:07 51°24.683 2°52.443 8.1 345 6.2 101970 30
2010-04-22 07:21:12 51°24.703 2°52.441 6.7 283 6.2 101970 30
2010-04-22 07:21:17 51°24.723 2°52.438 7.9 346 6.2 101970 30
2010-04-22 07:21:22 51°24.743 2°52.436 6.8 282 6.2 101980 29
2010-04-22 07:21:27 51°24.763 2°52.434 6.6 346 6.2 101980 29
2010-04-22 07:21:32 51°24.783 2°52.431 7 346 6.2 101980 30
2010-04-22 07:21:37 51°24.804 2°52.43 6.9 349 6.2 101980 30
2010-04-22 07:21:42 51°24.824 2°52.427 6.8 348 6.1 101990 31
2010-04-22 07:21:47 51°24.844 2°52.425 7.3 345 6.1 101990 31
2010-04-22 07:21:52 51°24.864 2°52.423 6.4 280 6.2 101970 30
2010-04-22 07:21:57 51°24.884 2°52.419 5.9 347 6.2 101970 30
2010-04-22 07:22:02 51°24.904 2°52.418 7.5 346 6.2 102000 30
2010-04-22 07:22:07 51°24.924 2°52.415 7.3 348 6.2 102000 30
2010-04-22 07:22:12 51°24.944 2°52.412 7.1 281 6.2 101990 30
2010-04-22 07:22:17 51°24.964 2°52.409 7.4 345 6.2 101990 30
2010-04-22 07:22:22 51°24.984 2°52.407 7.2 346 6.2 101990 30
2010-04-22 07:22:27 51°25.004 2°52.405 7.6 345 6.2 101990 30
2010-04-22 07:22:32 51°25.024 2°52.403 7.1 280 6.2 101980 31
2010-04-22 07:22:37 51°25.044 2°52.4 6.5 346 6.2 101980 31
2010-04-22 07:22:42 51°25.065 2°52.398 7 283 6.2 101990 32
2010-04-22 07:22:47 51°25.085 2°52.395 7.4 347 6.2 101990 32
2010-04-22 07:22:52 51°25.105 2°52.393 5.7 280 6.2 101970 31
2010-04-22 07:22:57 51°25.125 2°52.391 7.2 342 6.2 101970 31
2010-04-22 07:23:02 51°25.145 2°52.388 6.5 348 6.2 101980 30
2010-04-22 07:23:07 51°25.165 2°52.386 7.5 345 6.2 101980 30
2010-04-22 07:23:12 51°25.185 2°52.383 6.8 345 6.2 101980 31
2010-04-22 07:23:17 51°25.205 2°52.381 7.8 343 6.2 101980 31
2010-04-22 07:23:22 51°25.225 2°52.378 7.2 346 6.2 101980 31
2010-04-22 07:23:27 51°25.245 2°52.376 7.5 345 6.2 101980 31
2010-04-22 07:23:32 51°25.265 2°52.373 8.2 278 6.2 101970 31
2010-04-22 07:23:37 51°25.286 2°52.371 7.6 343 6.2 101970 31
2010-04-22 07:23:42 51°25.306 2°52.368 7.7 280 6.2 101990 32
2010-04-22 07:23:47 51°25.326 2°52.365 7.7 342 6.2 101990 32
2010-04-22 07:23:52 51°25.347 2°52.362 7.6 283 6.2 101990 30
2010-04-22 07:23:57 51°25.367 2°52.359 7.7 340 6.2 101990 30
2010-04-22 07:24:02 51°25.387 2°52.356 7.4 343 6.2 101970 31
2010-04-22 07:24:07 51°25.408 2°52.353 8 341 6.2 101970 31
2010-04-22 07:24:12 51°25.428 2°52.349 8.5 280 6.2 101980 31
2010-04-22 07:24:17 51°25.449 2°52.346 7 342 6.2 101980 31
2010-04-22 07:24:22 51°25.469 2°52.343 8 284 6.2 101980 31
2010-04-22 07:24:27 51°25.489 2°52.34 8.5 341 6.2 101980 31
2010-04-22 07:24:31 51°25.505 2°52.337 8 280 6.2 101970 30
2010-04-22 07:24:37 51°25.53 2°52.333 7 344 6.2 101970 30
2010-04-22 07:24:42 51°25.55 2°52.33 7.5 280 6.2 101980 30
2010-04-22 07:24:47 51°25.57 2°52.327 6.9 342 6.2 101980 30
2010-04-22 07:24:52 51°25.59 2°52.323 7.2 286 6.2 101980 31
2010-04-22 07:24:57 51°25.61 2°52.32 6.8 338 6.2 101980 31
2010-04-22 07:25:02 51°25.63 2°52.317 7 340 6.2 101980 30
2010-04-22 07:25:07 51°25.65 2°52.312 6.5 340 6.2 101980 30
2010-04-22 07:25:12 51°25.671 2°52.309 5.8 285 6.2 101980 30
2010-04-22 07:25:17 51°25.691 2°52.305 6.1 340 6.2 101980 30
2010-04-22 07:25:22 51°25.711 2°52.302 5.9 279 6.2 101990 30
2010-04-22 07:25:27 51°25.731 2°52.298 6.3 342 6.2 101990 30
2010-04-22 07:25:32 51°25.75 2°52.295 5.7 284 6.2 101990 31
2010-04-22 07:25:37 51°25.77 2°52.292 5.7 343 6.2 101990 31
2010-04-22 07:25:42 51°25.79 2°52.289 6.1 346 6.2 102000 31
2010-04-22 07:25:47 51°25.809 2°52.286 6.4 342 6.2 102000 31
2010-04-22 07:25:52 51°25.83 2°52.282 6.5 281 6.2 101980 30
2010-04-22 07:25:57 51°25.849 2°52.279 6.4 342 6.2 101980 30
2010-04-22 07:26:02 51°25.869 2°52.276 7 341 6.2 101990 32
2010-04-22 07:26:07 51°25.89 2°52.274 6.1 343 6.2 101990 32
2010-04-22 07:26:12 51°25.91 2°52.271 8.2 282 6.2 101990 30
2010-04-22 07:26:17 51°25.93 2°52.268 7 343 6.2 101990 30
2010-04-22 07:26:22 51°25.949 2°52.266 6.5 285 6.2 102000 30
2010-04-22 07:26:27 51°25.969 2°52.263 6.2 342 6.2 102000 30
2010-04-22 07:26:32 51°25.989 2°52.26 6.7 280 6.2 101990 30
2010-04-22 07:26:37 51°26.009 2°52.258 7.1 343 6.2 101990 30
2010-04-22 07:26:42 51°26.029 2°52.256 7.1 279 6.2 101970 30
2010-04-22 07:26:47 51°26.049 2°52.256 7.7 344 6.2 101970 30
2010-04-22 07:26:52 51°26.07 2°52.254 6.9 280 6.2 101970 31
2010-04-22 07:26:57 51°26.09 2°52.254 6.9 346 6.2 101970 31
2010-04-22 07:27:02 51°26.111 2°52.254 7.7 342 6.2 101990 30
2010-04-22 07:27:07 51°26.131 2°52.254 7.2 344 6.2 101990 30
2010-04-22 07:27:12 51°26.151 2°52.255 6.8 284 6.2 101980 32
2010-04-22 07:27:17 51°26.171 2°52.255 7 342 6.2 101980 32
2010-04-22 07:27:22 51°26.192 2°52.255 7.6 280 6.2 101990 31
2010-04-22 07:27:27 51°26.212 2°52.255 7.4 341 6.2 101990 31
2010-04-22 07:27:32 51°26.232 2°52.256 7.5 342 6.2 101980 32
2010-04-22 07:27:37 51°26.253 2°52.256 8 339 6.2 101980 32
2010-04-22 07:27:42 51°26.274 2°52.256 7.5 285 6.2 102000 32
2010-04-22 07:27:47 51°26.294 2°52.256 7.3 338 6.2 102000 32
2010-04-22 07:27:52 51°26.314 2°52.256 7.7 281 6.2 101980 30
2010-04-22 07:27:57 51°26.335 2°52.256 7.9 337 6.2 101980 30
2010-04-22 07:28:02 51°26.355 2°52.256 7.6 336 6.2 101990 30
2010-04-22 07:28:07 51°26.376 2°52.256 7.8 336 6.2 101990 30
2010-04-22 07:28:12 51°26.396 2°52.257 7 285 6.2 101990 32
2010-04-22 07:28:17 51°26.417 2°52.256 7.5 338 6.2 101990 32
2010-04-22 07:28:22 51°26.437 2°52.256 6.2 280 6.2 101970 30
2010-04-22 07:28:27 51°26.458 2°52.257 6.3 338 6.2 101970 30
2010-04-22 07:28:32 51°26.478 2°52.257 7.3 285 6.2 101980 31
2010-04-22 07:28:37 51°26.498 2°52.257 6.3 337 6.2 101980 31
2010-04-22 07:28:42 51°26.519 2°52.258 7.1 286 6.2 101980 31
2010-04-22 07:28:47 51°26.539 2°52.258 8.5 338 6.2 101980 31
2010-04-22 07:28:52 51°26.559 2°52.258 5.8 285 6.2 101990 30
2010-04-22 07:28:57 51°26.579 2°52.258 7.2 338 6.2 101990 30
2010-04-22 07:29:02 51°26.6 2°52.258 7.1 338 6.2 101980 30
2010-04-22 07:29:07 51°26.62 2°52.259 7.1 345 6.2 101980 30
2010-04-22 07:29:12 51°26.64 2°52.258 7.8 342 6.2 101990 32
2010-04-22 07:29:17 51°26.66 2°52.259 7 344 6.2 101990 32
2010-04-22 07:29:22 51°26.68 2°52.259 7.9 286 6.2 101990 31
2010-04-22 07:29:27 51°26.701 2°52.259 7.3 342 6.2 101990 31
2010-04-22 07:29:32 51°26.721 2°52.259 7.2 282 6.2 101990 31
2010-04-22 07:29:37 51°26.741 2°52.259 7.2 341 6.2 101990 31
2010-04-22 07:29:42 51°26.762 2°52.259 6.8 285 6.3 101980 31
2010-04-22 07:29:47 51°26.782 2°52.259 7.3 342 6.3 101980 31
2010-04-22 07:29:52 51°26.802 2°52.258 7.6 279 6.2 101970 30
2010-04-22 07:29:57 51°26.822 2°52.259 7.9 342 6.2 101970 30
2010-04-22 07:30:02 51°26.843 2°52.259 7.4 343 6.2 101980 29
2010-04-22 07:30:07 51°26.863 2°52.259 7.7 346 6.2 101980 29
2010-04-22 07:30:12 51°26.883 2°52.259 9 283 6.2 101980 30
2010-04-22 07:30:17 51°26.904 2°52.26 8.1 343 6.2 101980 30
2010-04-22 07:30:22 51°26.924 2°52.26 7.9 278 6.2 101980 31
2010-04-22 07:30:27 51°26.944 2°52.26 7.8 343 6.2 101980 31
2010-04-22 07:30:32 51°26.965 2°52.261 8.3 283 6.2 101990 32
2010-04-22 07:30:37 51°26.984 2°52.261 10.7 343 6.2 101990 32
2010-04-22 07:30:42 51°27.004 2°52.261 7.9 280 6.2 101970 30
2010-04-22 07:30:47 51°27.024 2°52.261 8.1 344 6.2 101970 30
2010-04-22 07:30:52 51°27.045 2°52.261 8.2 281 6.2 101980 30
2010-04-22 07:30:57 51°27.065 2°52.261 7.7 342 6.2 101980 30
2010-04-22 07:31:02 51°27.085 2°52.261 8 344 6.2 101990 29
2010-04-22 07:31:07 51°27.105 2°52.262 7.6 343 6.2 101990 29
2010-04-22 07:31:12 51°27.125 2°52.262 7.6 286 6.2 101970 31
2010-04-22 07:31:17 51°27.145 2°52.262 7.7 343 6.2 101970 31
2010-04-22 07:31:22 51°27.165 2°52.263 7.7 282 6.2 101980 30
2010-04-22 07:31:27 51°27.186 2°52.263 7.3 341 6.2 101980 30
2010-04-22 07:31:32 51°27.206 2°52.263 6.9 286 6.2 101990 30
2010-04-22 07:31:37 51°27.226 2°52.263 7.2 344 6.2 101990 30
2010-04-22 07:31:42 51°27.246 2°52.264 8.6 281 6.2 101970 29
2010-04-22 07:31:47 51°27.266 2°52.264 8.9 342 6.2 101970 29
2010-04-22 07:31:52 51°27.286 2°52.264 7.9 280 6.2 101970 29
2010-04-22 07:31:57 51°27.306 2°52.265 6.9 340 6.2 101970 29
2010-04-22 07:32:02 51°27.326 2°52.265 7.2 340 6.2 101980 30
2010-04-22 07:32:07 51°27.346 2°52.265 7 341 6.2 101980 30
2010-04-22 07:32:12 51°27.366 2°52.266 8.7 343 6.2 101970 31
2010-04-22 07:32:17 51°27.386 2°52.266 8.5 340 6.2 101970 31
2010-04-22 07:32:22 51°27.407 2°52.267 6.8 284 6.2 101980 30
2010-04-22 07:32:27 51°27.427 2°52.266 8.8 341 6.2 101980 30
2010-04-22 07:32:32 51°27.447 2°52.267 8.3 286 6.2 101990 30
2010-04-22 07:32:37 51°27.467 2°52.267 8.1 337 6.2 101990 30
2010-04-22 07:32:42 51°27.488 2°52.268 7.9 285 6.2 101980 30
2010-04-22 07:32:47 51°27.508 2°52.268 8.1 339 6.2 101980 30
2010-04-22 07:32:52 51°27.528 2°52.269 9.1 283 6.2 101990 30
2010-04-22 07:32:57 51°27.548 2°52.269 8 343 6.2 101990 30
2010-04-22 07:33:02 51°27.568 2°52.27 8.1 344 6.2 101970 30
2010-04-22 07:33:07 51°27.588 2°52.27 7.8 338 6.2 101970 30
2010-04-22 07:33:12 51°27.608 2°52.271 8.2 280 6.2 101980 31
2010-04-22 07:33:17 51°27.628 2°52.271 7.6 340 6.2 101980 31
2010-04-22 07:33:22 51°27.648 2°52.271 8.4 279 6.2 101980 30
2010-04-22 07:33:27 51°27.668 2°52.272 8.6 340 6.2 101980 30
2010-04-22 07:33:32 51°27.688 2°52.272 7.9 283 6.2 101980 30
2010-04-22 07:33:37 51°27.708 2°52.272 8 340 6.2 101980 30
2010-04-22 07:33:42 51°27.728 2°52.272 7.8 283 6.2 101980 29
2010-04-22 07:33:47 51°27.748 2°52.271 7.7 341 6.2 101980 29
2010-04-22 07:33:52 51°27.768 2°52.27 7.4 279 6.2 101980 32
2010-04-22 07:33:57 51°27.788 2°52.27 7.3 340 6.2 101980 32
2010-04-22 07:34:02 51°27.808 2°52.269 7 340 6.2 101980 31
2010-04-22 07:34:07 51°27.828 2°52.269 6.9 340 6.2 101980 31
2010-04-22 07:34:12 51°27.847 2°52.268 7.5 277 6.2 101960 30
2010-04-22 07:34:17 51°27.868 2°52.268 7.7 341 6.2 101960 30
2010-04-22 07:34:22 51°27.888 2°52.268 7.8 285 6.2 101980 29
2010-04-22 07:34:27 51°27.908 2°52.268 7.2 343 6.2 101980 29
2010-04-22 07:34:31 51°27.924 2°52.267 8 286 6.2 101990 30
2010-04-22 07:34:37 51°27.948 2°52.266 7.7 342 6.2 101990 30
2010-04-22 07:34:42 51°27.968 2°52.266 8.2 281 6.2 101980 30
2010-04-22 07:34:47 51°27.989 2°52.266 7.7 344 6.2 101980 30
2010-04-22 07:34:52 51°28.009 2°52.266 7.1 285 6.2 101980 30
2010-04-22 07:34:57 51°28.029 2°52.265 7.1 340 6.2 101980 30
2010-04-22 07:35:02 51°28.049 2°52.265 8.1 340 6.2 101970 31
2010-04-22 07:35:07 51°28.069 2°52.265 8 341 6.2 101970 31
2010-04-22 07:35:12 51°28.089 2°52.264 7.4 279 6.2 101980 30
2010-04-22 07:35:17 51°28.109 2°52.264 7.2 343 6.2 101980 30
2010-04-22 07:35:22 51°28.129 2°52.263 7.1 279 6.2 101990 30
2010-04-22 07:35:27 51°28.149 2°52.263 8.2 340 6.2 101990 30
2010-04-22 07:35:32 51°28.169 2°52.263 7.3 280 6.2 101980 31
2010-04-22 07:35:37 51°28.189 2°52.263 7.7 341 6.2 101980 31
2010-04-22 07:35:42 51°28.209 2°52.262 7.8 281 6.2 101990 29
2010-04-22 07:35:47 51°28.229 2°52.261 8.6 343 6.2 101990 29
2010-04-22 07:35:52 51°28.25 2°52.262 7.5 281 6.2 101980 30
2010-04-22 07:35:58 51°28.274 2°52.261 7.3 339 6.2 101980 30
2010-04-22 07:36:02 51°28.29 2°52.261 7.2 340 6.2 101980 31
2010-04-22 07:36:07 51°28.31 2°52.26 7.5 342 6.2 101980 31
2010-04-22 07:36:12 51°28.33 2°52.26 7.3 286 6.2 101980 31
2010-04-22 07:36:17 51°28.351 2°52.259 6.8 341 6.2 101980 31
2010-04-22 07:36:22 51°28.371 2°52.259 6.6 279 6.2 101980 30
2010-04-22 07:36:27 51°28.391 2°52.259 7 342 6.2 101980 30
2010-04-22 07:36:32 51°28.412 2°52.258 5.9 287 6.2 101990 31
2010-04-22 07:36:37 51°28.432 2°52.258 7 344 6.2 101990 31
2010-04-22 07:36:42 51°28.452 2°52.258 5.2 284 6.2 101990 29
2010-04-22 07:36:47 51°28.472 2°52.258 5.5 342 6.2 101990 29
2010-04-22 07:36:52 51°28.493 2°52.258 6.3 285 6.2 101980 31
2010-04-22 07:36:57 51°28.512 2°52.257 5.8 339 6.2 101980 31
2010-04-22 07:37:02 51°28.532 2°52.258 6.2 342 6.2 101990 31
2010-04-22 07:37:07 51°28.552 2°52.258 7.3 341 6.2 101990 31
2010-04-22 07:37:12 51°28.573 2°52.258 8.1 279 6.2 101990 31
2010-04-22 07:37:17 51°28.592 2°52.258 7.7 341 6.2 101990 31
2010-04-22 07:37:22 51°28.613 2°52.259 7.3 284 6.2 101990 30
2010-04-22 07:37:27 51°28.633 2°52.258 6.5 343 6.2 101990 30
2010-04-22 07:37:31 51°28.649 2°52.258 7.2 284 6.2 101980 31
2010-04-22 07:37:37 51°28.673 2°52.258 7.3 342 6.2 101980 31
2010-04-22 07:37:42 51°28.693 2°52.258 7.6 285 6.2 101980 30
2010-04-22 07:37:47 51°28.713 2°52.257 7.2 343 6.2 101980 30
2010-04-22 07:37:52 51°28.733 2°52.257 7 279 6.2 101990 30
2010-04-22 07:37:57 51°28.753 2°52.257 6.2 343 6.2 101990 30
2010-04-22 07:38:02 51°28.773 2°52.257 7.1 343 6.2 101980 29
2010-04-22 07:38:07 51°28.793 2°52.257 7.1 345 6.2 101980 29
2010-04-22 07:38:12 51°28.813 2°52.258 6.6 282 6.2 101970 30
2010-04-22 07:38:17 51°28.833 2°52.257 6.3 344 6.2 101970 30
2010-04-22 07:38:22 51°28.853 2°52.258 7.3 286 6.2 101990 31
2010-04-22 07:38:27 51°28.873 2°52.258 7 342 6.2 101990 31
2010-04-22 07:38:32 51°28.893 2°52.259 6.2 284 6.1 101980 31
2010-04-22 07:38:37 51°28.914 2°52.259 6.5 343 6.1 101980 31
2010-04-22 07:38:42 51°28.934 2°52.259 5.9 284 6.1 101990 30
2010-04-22 07:38:47 51°28.954 2°52.26 6 343 6.1 101990 30
2010-04-22 07:38:52 51°28.974 2°52.26 6.5 284 6.1 101980 31
2010-04-22 07:38:57 51°28.995 2°52.26 5.4 342 6.1 101980 31
2010-04-22 07:39:02 51°29.015 2°52.26 6.7 340 6.2 101990 30
2010-04-22 07:39:07 51°29.035 2°52.26 7 342 6.2 101990 30
2010-04-22 07:39:12 51°29.055 2°52.26 6.1 285 6.1 101980 29
2010-04-22 07:39:17 51°29.075 2°52.26 6.1 341 6.1 101980 29
2010-04-22 07:39:22 51°29.095 2°52.26 6.7 282 6.1 101980 30
2010-04-22 07:39:27 51°29.115 2°52.26 5.6 342 6.1 101980 30
2010-04-22 07:39:32 51°29.136 2°52.26 5.8 283 6.1 101990 30
2010-04-22 07:39:37 51°29.156 2°52.26 6 342 6.1 101990 30
2010-04-22 07:39:42 51°29.176 2°52.26 6.2 284 6.1 101980 31
2010-04-22 07:39:47 51°29.197 2°52.26 6.2 342 6.1 101980 31
2010-04-22 07:39:52 51°29.217 2°52.26 7.1 286 6.1 101990 30
2010-04-22 07:39:57 51°29.238 2°52.26 6.5 341 6.1 101990 30
2010-04-22 07:40:02 51°29.258 2°52.26 6.1 341 6.1 101990 31
2010-04-22 07:40:07 51°29.279 2°52.261 5.7 341 6.1 101990 31
2010-04-22 07:40:12 51°29.299 2°52.26 6.1 285 6.1 101980 30
2010-04-22 07:40:17 51°29.319 2°52.261 7.1 341 6.1 101980 30
2010-04-22 07:40:22 51°29.34 2°52.26 6.4 283 6.1 101980 31
2010-04-22 07:40:27 51°29.36 2°52.26 6.7 338 6.1 101980 31
2010-04-22 07:40:31 51°29.377 2°52.26 5.2 283 6.1 101990 30
2010-04-22 07:40:37 51°29.401 2°52.26 5.2 340 6.1 101990 30
2010-04-22 07:40:42 51°29.421 2°52.26 6.5 285 6.2 101990 30
2010-04-22 07:40:47 51°29.441 2°52.26 6.8 338 6.2 101990 30
2010-04-22 07:40:52 51°29.461 2°52.26 6.4 283 6.2 101990 30
2010-04-22 07:40:57 51°29.482 2°52.26 5.5 341 6.2 101990 30
2010-04-22 07:41:02 51°29.502 2°52.259 6 343 6.2 101990 32
2010-04-22 07:41:07 51°29.523 2°52.258 6.6 340 6.2 101990 32
2010-04-22 07:41:12 51°29.544 2°52.259 6.9 283 6.2 101980 30
2010-04-22 07:41:17 51°29.564 2°52.258 6.2 338 6.2 101980 30
2010-04-22 07:41:22 51°29.584 2°52.258 7.4 280 6.2 101980 31
2010-04-22 07:41:27 51°29.604 2°52.258 6.4 338 6.2 101980 31
2010-04-22 07:41:32 51°29.625 2°52.257 6.4 279 6.2 101980 31
2010-04-22 07:41:37 51°29.645 2°52.257 6.7 338 6.2 101980 31
2010-04-22 07:41:42 51°29.666 2°52.257 7.2 285 6.2 101980 32
2010-04-22 07:41:47 51°29.686 2°52.257 6.2 339 6.2 101980 32
2010-04-22 07:41:52 51°29.706 2°52.257 6.5 286 6.2 101980 30
2010-04-22 07:41:57 51°29.727 2°52.256 5.8 339 6.2 101980 30
2010-04-22 07:42:02 51°29.748 2°52.257 6.9 339 6.2 101970 30
2010-04-22 07:42:07 51°29.768 2°52.256 6.1 342 6.2 101970 30
2010-04-22 07:42:12 51°29.788 2°52.257 6.8 279 6.2 101990 30
2010-04-22 07:42:17 51°29.809 2°52.255 7.5 346 6.2 101990 30
2010-04-22 07:42:22 51°29.829 2°52.257 6.2 278 6.2 101990 32
2010-04-22 07:42:27 51°29.85 2°52.256 6.2 342 6.2 101990 32
2010-04-22 07:42:32 51°29.87 2°52.257 7.7 287 6.2 101990 30
2010-04-22 07:42:37 51°29.891 2°52.256 7.1 334 6.2 101990 30
2010-04-22 07:42:42 51°29.912 2°52.256 7.1 282 6.2 101990 31
2010-04-22 07:42:47 51°29.932 2°52.256 7.1 334 6.2 101990 31
2010-04-22 07:42:52 51°29.952 2°52.256 7.4 279 6.2 101990 30
2010-04-22 07:42:57 51°29.973 2°52.256 8.2 334 6.2 101990 30
2010-04-22 07:43:02 51°29.993 2°52.255 7.9 335 6.2 101990 31
2010-04-22 07:43:07 51°30.013 2°52.256 7.9 335 6.2 101990 31
2010-04-22 07:43:12 51°30.034 2°52.255 7.7 285 6.2 101990 31
2010-04-22 07:43:17 51°30.054 2°52.255 7.9 335 6.2 101990 31
2010-04-22 07:43:22 51°30.075 2°52.255 7.5 283 6.2 101980 31
2010-04-22 07:43:27 51°30.095 2°52.254 7.5 338 6.2 101980 31
2010-04-22 07:43:31 51°30.111 2°52.255 8 281 6.2 101980 31
2010-04-22 07:43:37 51°30.135 2°52.255 7.4 335 6.2 101980 31
2010-04-22 07:43:42 51°30.155 2°52.255 7.7 334 6.2 101990 30
2010-04-22 07:43:47 51°30.175 2°52.256 7.5 333 6.2 101990 30
2010-04-22 07:43:52 51°30.195 2°52.255 7.1 282 6.2 101990 30
2010-04-22 07:43:57 51°30.216 2°52.255 7.7 336 6.2 101990 30
2010-04-22 07:44:02 51°30.236 2°52.254 7.5 337 6.2 101980 30
2010-04-22 07:44:07 51°30.257 2°52.255 7.5 337 6.2 101980 30
2010-04-22 07:44:12 51°30.277 2°52.254 7.1 284 6.2 101970 30
2010-04-22 07:44:17 51°30.298 2°52.254 7.6 341 6.2 101970 30
2010-04-22 07:44:22 51°30.318 2°52.254 6.6 280 6.2 101990 31
2010-04-22 07:44:27 51°30.339 2°52.253 6.8 337 6.2 101990 31
2010-04-22 07:44:32 51°30.36 2°52.253 7 281 6.2 101980 30
2010-04-22 07:44:37 51°30.381 2°52.252 8.2 334 6.2 101980 30
2010-04-22 07:44:42 51°30.401 2°52.252 7.7 285 6.2 101990 30
2010-04-22 07:44:47 51°30.422 2°52.252 7.5 336 6.2 101990 30
2010-04-22 07:44:52 51°30.442 2°52.252 7.7 280 6.2 101990 30
2010-04-22 07:44:58 51°30.467 2°52.252 8.2 336 6.2 101990 30
2010-04-22 07:45:02 51°30.484 2°52.252 7.9 338 6.2 101990 31
2010-04-22 07:45:07 51°30.505 2°52.251 7.6 337 6.2 101990 31
2010-04-22 07:45:12 51°30.525 2°52.252 8 280 6.2 101980 30
2010-04-22 07:45:17 51°30.546 2°52.251 8 337 6.2 101980 30
2010-04-22 07:45:22 51°30.567 2°52.251 7.8 286 6.2 101980 31
2010-04-22 07:45:27 51°30.588 2°52.251 7.7 335 6.2 101980 31
2010-04-22 07:45:32 51°30.609 2°52.25 7.8 285 6.2 101980 31
2010-04-22 07:45:37 51°30.629 2°52.25 8.2 337 6.2 101980 31
2010-04-22 07:45:42 51°30.65 2°52.25 8.3 286 6.2 101980 31
2010-04-22 07:45:47 51°30.67 2°52.249 8.3 339 6.2 101980 31
2010-04-22 07:45:52 51°30.691 2°52.25 7.8 285 6.2 101990 30
2010-04-22 07:45:57 51°30.712 2°52.249 8.8 338 6.2 101990 30
2010-04-22 07:46:02 51°30.732 2°52.25 8 337 6.2 101980 29
2010-04-22 07:46:07 51°30.752 2°52.249 8.5 338 6.2 101980 29
2010-04-22 07:46:12 51°30.773 2°52.249 7.5 285 6.2 101970 32
2010-04-22 07:46:17 51°30.793 2°52.248 7.6 338 6.2 101970 32
2010-04-22 07:46:22 51°30.813 2°52.249 7.7 282 6.2 101980 32
2010-04-22 07:46:27 51°30.833 2°52.248 7.8 335 6.2 101980 32
2010-04-22 07:46:32 51°30.854 2°52.248 7.7 282 6.2 101980 30
2010-04-22 07:46:37 51°30.874 2°52.249 7.6 337 6.2 101980 30
2010-04-22 07:46:42 51°30.894 2°52.248 6.8 287 6.2 101980 31
2010-04-22 07:46:47 51°30.913 2°52.249 6.2 338 6.2 101980 31
2010-04-22 07:46:52 51°30.93 2°52.248 6.5 337 6.2 101990 29
2010-04-22 07:46:57 51°30.947 2°52.249 4.7 341 6.2 101990 29